Time,TemperatureF,DewpointF,PressureIn,WindDirection,WindDirectionDegrees,WindSpeedMPH,WindSpeedGustMPH,Humidity,HourlyPrecipIn,Conditions,Clouds,dailyrainin,SolarRadiationWatts/m^2,SoftwareType,DateUTC
2013-03-12 00:22:00,27.0,16.0,-100.00,WNW,297,7.0,22.0,62,0.00,,,0.01,0.000000,,2013-03-12 06:22:00,
2013-03-12 00:32:00,27.0,16.0,-100.00,WNW,297,7.0,22.0,62,0.00,,,0.01,0.000000,,2013-03-12 06:32:00,
2013-03-12 00:42:00,27.0,16.0,-100.00,WNW,297,7.0,22.0,62,0.00,,,0.01,0.000000,,2013-03-12 06:42:00,
2013-03-12 00:52:00,27.0,16.0,-100.00,WNW,297,7.0,22.0,62,0.00,,,0.01,0.000000,,2013-03-12 06:52:00,
2013-03-12 01:22:00,24.0,22.0,-100.00,WSW,251,4.0,13.0,91,0.00,,,0.01,0.000000,,2013-03-12 07:22:00,
2013-03-12 01:32:00,24.0,22.0,-100.00,WSW,251,4.0,13.0,91,0.00,,,0.01,0.000000,,2013-03-12 07:32:00,
2013-03-12 01:42:00,24.0,22.0,-100.00,WSW,251,4.0,13.0,91,0.00,,,0.01,0.000000,,2013-03-12 07:42:00,
2013-03-12 01:52:00,24.0,22.0,-100.00,WSW,251,4.0,13.0,91,0.00,,,0.01,0.000000,,2013-03-12 07:52:00,
2013-03-12 02:22:00,22.0,20.0,-100.00,SSW,197,3.0,5.0,92,0.00,,,0.01,0.000000,,2013-03-12 08:22:00,
2013-03-12 02:33:00,22.0,20.0,-100.00,SSW,197,3.0,5.0,92,0.00,,,0.01,0.000000,,2013-03-12 08:33:00,
2013-03-12 02:42:00,22.0,20.0,-100.00,SSW,197,3.0,5.0,92,0.00,,,0.01,0.000000,,2013-03-12 08:42:00,
2013-03-12 02:52:00,22.0,20.0,-100.00,SSW,197,3.0,5.0,92,0.00,,,0.01,0.000000,,2013-03-12 08:52:00,
2013-03-12 03:22:00,23.0,21.0,-100.00,SSE,147,4.0,7.0,90,0.00,,,0.01,0.000000,,2013-03-12 09:22:00,
2013-03-12 03:32:00,23.0,21.0,-100.00,SSE,147,4.0,7.0,90,0.00,,,0.01,0.000000,,2013-03-12 09:32:00,
2013-03-12 03:42:00,23.0,21.0,-100.00,SSE,147,4.0,7.0,90,0.00,,,0.01,0.000000,,2013-03-12 09:42:00,
2013-03-12 03:52:00,23.0,21.0,-100.00,SSE,147,4.0,7.0,90,0.00,,,0.01,0.000000,,2013-03-12 09:52:00,
2013-03-12 04:22:00,23.0,21.0,-100.00,NE,39,2.0,11.0,90,0.00,,,0.01,0.000000,,2013-03-12 10:22:00,
2013-03-12 04:32:00,23.0,21.0,-100.00,NE,39,2.0,11.0,90,0.00,,,0.01,0.000000,,2013-03-12 10:32:00,
2013-03-12 04:42:00,23.0,21.0,-100.00,NE,39,2.0,11.0,90,0.00,,,0.01,0.000000,,2013-03-12 10:42:00,
2013-03-12 04:52:00,23.0,21.0,-100.00,NE,39,2.0,11.0,90,0.00,,,0.01,0.000000,,2013-03-12 10:52:00,
2013-03-12 05:22:00,24.0,22.0,-100.00,South,175,4.0,6.0,93,0.00,,,0.01,0.000000,,2013-03-12 11:22:00,
2013-03-12 05:32:00,24.0,22.0,-100.00,South,175,4.0,6.0,93,0.00,,,0.01,0.000000,,2013-03-12 11:32:00,
2013-03-12 05:42:00,24.0,22.0,-100.00,South,175,4.0,6.0,93,0.00,,,0.01,0.000000,,2013-03-12 11:42:00,
2013-03-12 05:52:00,24.0,22.0,-100.00,South,175,4.0,6.0,93,0.00,,,0.01,0.000000,,2013-03-12 11:52:00,
2013-03-12 06:22:00,24.0,22.0,-100.00,WSW,246,3.0,6.0,93,0.00,,,0.01,0.000000,,2013-03-12 12:22:00,
2013-03-12 06:32:00,24.0,22.0,-100.00,WSW,246,3.0,6.0,93,0.00,,,0.01,0.000000,,2013-03-12 12:32:00,
2013-03-12 06:42:00,24.0,22.0,-100.00,WSW,246,3.0,6.0,93,0.00,,,0.01,0.000000,,2013-03-12 12:42:00,
2013-03-12 06:52:00,24.0,22.0,-100.00,WSW,246,3.0,6.0,93,0.00,,,0.01,0.000000,,2013-03-12 12:52:00,
2013-03-12 07:22:00,25.0,22.0,-100.00,South,178,7.0,11.0,90,0.00,,,0.01,0.000000,,2013-03-12 13:22:00,
2013-03-12 07:32:00,25.0,22.0,-100.00,South,178,7.0,11.0,90,0.00,,,0.01,0.000000,,2013-03-12 13:32:00,
2013-03-12 07:42:00,25.0,22.0,-100.00,South,178,7.0,11.0,90,0.00,,,0.01,0.000000,,2013-03-12 13:42:00,
2013-03-12 07:52:00,25.0,22.0,-100.00,South,178,7.0,11.0,90,0.00,,,0.01,0.000000,,2013-03-12 13:52:00,
2013-03-12 08:22:00,25.0,23.0,-100.00,South,174,5.0,13.0,93,0.00,,,0.01,1.000000,,2013-03-12 14:22:00,
2013-03-12 08:33:00,25.0,23.0,-100.00,South,174,5.0,13.0,93,0.00,,,0.01,1.000000,,2013-03-12 14:33:00,
2013-03-12 08:42:00,25.0,23.0,-100.00,South,174,5.0,13.0,93,0.00,,,0.01,1.000000,,2013-03-12 14:42:00,
2013-03-12 08:52:00,25.0,23.0,-100.00,South,174,5.0,13.0,93,0.00,,,0.01,1.000000,,2013-03-12 14:52:00,
2013-03-12 09:22:00,26.0,24.0,-100.00,SSE,160,8.0,13.0,91,0.00,,,0.01,13.000000,,2013-03-12 15:22:00,
2013-03-12 09:32:00,26.0,24.0,-100.00,SSE,160,8.0,13.0,91,0.00,,,0.01,13.000000,,2013-03-12 15:32:00,
2013-03-12 09:42:00,26.0,24.0,-100.00,SSE,160,8.0,13.0,91,0.00,,,0.01,13.000000,,2013-03-12 15:42:00,
2013-03-12 09:52:00,26.0,24.0,-100.00,SSE,160,8.0,13.0,91,0.00,,,0.01,13.000000,,2013-03-12 15:52:00,
2013-03-12 10:22:00,26.0,23.0,-100.00,South,176,8.0,15.0,88,0.00,,,0.01,28.000000,,2013-03-12 16:22:00,
2013-03-12 10:33:00,26.0,23.0,-100.00,South,176,8.0,15.0,88,0.00,,,0.01,28.000000,,2013-03-12 16:33:00,
2013-03-12 10:43:00,26.0,23.0,-100.00,South,176,8.0,15.0,88,0.00,,,0.01,28.000000,,2013-03-12 16:43:00,
2013-03-12 10:52:00,26.0,23.0,-100.00,South,176,8.0,15.0,88,0.00,,,0.01,28.000000,,2013-03-12 16:52:00,
2013-03-12 11:22:00,28.0,24.0,-100.00,South,170,9.0,18.0,86,0.00,,,0.01,59.000000,,2013-03-12 17:22:00,
2013-03-12 11:34:00,28.0,24.0,-100.00,South,170,9.0,18.0,86,0.00,,,0.01,59.000000,,2013-03-12 17:34:00,
2013-03-12 11:43:00,28.0,24.0,-100.00,South,170,9.0,18.0,86,0.00,,,0.01,59.000000,,2013-03-12 17:43:00,
2013-03-12 11:53:00,28.0,24.0,-100.00,South,170,9.0,18.0,86,0.00,,,0.01,59.000000,,2013-03-12 17:53:00,
2013-03-12 12:23:00,29.0,23.0,-100.00,South,169,10.0,17.0,77,0.00,,,0.01,87.000000,,2013-03-12 18:23:00,
2013-03-12 12:33:00,29.0,23.0,-100.00,South,169,10.0,17.0,77,0.00,,,0.01,87.000000,,2013-03-12 18:33:00,
2013-03-12 12:42:00,29.0,23.0,-100.00,South,169,10.0,17.0,77,0.00,,,0.01,87.000000,,2013-03-12 18:42:00,
2013-03-12 12:53:00,29.0,23.0,-100.00,South,169,10.0,17.0,77,0.00,,,0.01,87.000000,,2013-03-12 18:53:00,
2013-03-12 13:23:00,30.0,23.0,-100.00,South,177,9.0,18.0,75,0.00,,,0.01,87.000000,,2013-03-12 19:23:00,
2013-03-12 13:33:00,30.0,23.0,-100.00,South,177,9.0,18.0,75,0.00,,,0.01,87.000000,,2013-03-12 19:33:00,
2013-03-12 13:43:00,30.0,23.0,-100.00,South,177,9.0,18.0,75,0.00,,,0.01,87.000000,,2013-03-12 19:43:00,
2013-03-12 13:53:00,30.0,23.0,-100.00,South,177,9.0,18.0,75,0.00,,,0.01,87.000000,,2013-03-12 19:53:00,
2013-03-12 14:23:00,33.0,22.0,-100.00,South,177,8.0,16.0,63,0.00,,,0.00,160.000000,,2013-03-12 20:23:00,
2013-03-12 14:32:00,33.0,22.0,-100.00,South,177,8.0,16.0,63,0.00,,,0.00,160.000000,,2013-03-12 20:32:00,
2013-03-12 14:42:00,33.0,22.0,-100.00,South,177,8.0,16.0,63,0.00,,,0.00,160.000000,,2013-03-12 20:42:00,
2013-03-12 14:52:00,33.0,22.0,-100.00,South,177,8.0,16.0,63,0.00,,,0.00,160.000000,,2013-03-12 20:52:00,
2013-03-12 15:22:00,35.0,20.0,-100.00,SSW,199,10.0,23.0,53,0.05,,,0.05,201.000000,,2013-03-12 21:22:00,
2013-03-12 15:33:00,35.0,20.0,-100.00,SSW,199,10.0,23.0,53,0.05,,,0.05,201.000000,,2013-03-12 21:33:00,
2013-03-12 15:43:00,35.0,20.0,-100.00,SSW,199,10.0,23.0,53,0.05,,,0.05,201.000000,,2013-03-12 21:43:00,
2013-03-12 15:52:00,35.0,20.0,-100.00,SSW,199,10.0,23.0,53,0.05,,,0.05,201.000000,,2013-03-12 21:52:00,
2013-03-12 16:22:00,34.0,19.0,-100.00,SSW,194,10.0,15.0,54,0.01,,,0.06,165.000000,,2013-03-12 22:22:00,
2013-03-12 16:33:00,34.0,19.0,-100.00,SSW,194,10.0,15.0,54,0.01,,,0.06,165.000000,,2013-03-12 22:33:00,
2013-03-12 16:43:00,34.0,19.0,-100.00,SSW,194,10.0,15.0,54,0.01,,,0.06,165.000000,,2013-03-12 22:43:00,
2013-03-12 16:52:00,34.0,19.0,-100.00,SSW,194,10.0,15.0,54,0.01,,,0.06,165.000000,,2013-03-12 22:52:00,
2013-03-12 17:22:00,34.0,20.0,-100.00,SE,142,6.0,13.0,55,0.00,,,0.06,138.000000,,2013-03-12 23:22:00,
2013-03-12 17:34:00,34.0,20.0,-100.00,SE,142,6.0,13.0,55,0.00,,,0.06,138.000000,,2013-03-12 23:34:00,
2013-03-12 17:43:00,34.0,20.0,-100.00,SE,142,6.0,13.0,55,0.00,,,0.06,138.000000,,2013-03-12 23:43:00,
2013-03-12 17:52:00,34.0,20.0,-100.00,SE,142,6.0,13.0,55,0.00,,,0.06,138.000000,,2013-03-12 23:52:00,
2013-03-12 18:23:00,34.0,20.0,-100.00,South,183,8.0,13.0,55,0.01,,,0.07,97.000000,,2013-03-13 00:23:00,
2013-03-12 18:33:00,34.0,20.0,-100.00,South,183,8.0,13.0,55,0.01,,,0.07,97.000000,,2013-03-13 00:33:00,
2013-03-12 18:42:00,34.0,20.0,-100.00,South,183,8.0,13.0,55,0.01,,,0.07,97.000000,,2013-03-13 00:42:00,
2013-03-12 18:52:00,34.0,20.0,-100.00,South,183,8.0,13.0,55,0.01,,,0.07,97.000000,,2013-03-13 00:52:00,
2013-03-12 19:22:00,33.0,19.0,-100.00,SSE,162,6.0,14.0,56,0.00,,,0.07,15.000000,,2013-03-13 01:22:00,
2013-03-12 19:32:00,33.0,19.0,-100.00,SSE,162,6.0,14.0,56,0.00,,,0.07,15.000000,,2013-03-13 01:32:00,
2013-03-12 19:42:00,33.0,19.0,-100.00,SSE,162,6.0,14.0,56,0.00,,,0.07,15.000000,,2013-03-13 01:42:00,
2013-03-12 19:52:00,33.0,19.0,-100.00,SSE,162,6.0,14.0,56,0.00,,,0.07,15.000000,,2013-03-13 01:52:00,
2013-03-12 20:22:00,33.0,19.0,-100.00,South,173,8.0,16.0,57,0.00,,,0.07,0.000000,,2013-03-13 02:22:00,
2013-03-12 20:32:00,33.0,19.0,-100.00,South,173,8.0,16.0,57,0.00,,,0.07,0.000000,,2013-03-13 02:32:00,
2013-03-12 20:43:00,33.0,19.0,-100.00,South,173,8.0,16.0,57,0.00,,,0.07,0.000000,,2013-03-13 02:43:00,
2013-03-12 20:52:00,33.0,19.0,-100.00,South,173,8.0,16.0,57,0.00,,,0.07,0.000000,,2013-03-13 02:52:00,
2013-03-12 21:22:00,32.0,19.0,-100.00,SSE,160,5.0,12.0,58,0.00,,,0.07,0.000000,,2013-03-13 03:22:00,
2013-03-12 21:32:00,32.0,19.0,-100.00,SSE,160,5.0,12.0,58,0.00,,,0.07,0.000000,,2013-03-13 03:32:00,
2013-03-12 21:42:00,32.0,19.0,-100.00,SSE,160,5.0,12.0,58,0.00,,,0.07,0.000000,,2013-03-13 03:42:00,
2013-03-12 21:52:00,32.0,19.0,-100.00,SSE,160,5.0,12.0,58,0.00,,,0.07,0.000000,,2013-03-13 03:52:00,
2013-03-12 22:22:00,31.0,21.0,-100.00,South,169,3.0,8.0,66,0.00,,,0.07,0.000000,,2013-03-13 04:22:00,
2013-03-12 22:32:00,31.0,21.0,-100.00,South,169,3.0,8.0,66,0.00,,,0.07,0.000000,,2013-03-13 04:32:00,
2013-03-12 22:42:00,31.0,21.0,-100.00,South,169,3.0,8.0,66,0.00,,,0.07,0.000000,,2013-03-13 04:42:00,
2013-03-12 22:52:00,31.0,21.0,-100.00,South,169,3.0,8.0,66,0.00,,,0.07,0.000000,,2013-03-13 04:52:00,
2013-03-12 23:22:00,30.0,20.0,-100.00,SSW,209,3.0,5.0,65,0.00,,,0.07,0.000000,,2013-03-13 05:22:00,
2013-03-12 23:32:00,30.0,20.0,-100.00,SSW,209,3.0,5.0,65,0.00,,,0.07,0.000000,,2013-03-13 05:32:00,
2013-03-12 23:42:00,30.0,20.0,-100.00,SSW,209,3.0,5.0,65,0.00,,,0.07,0.000000,,2013-03-13 05:42:00,
2013-03-12 23:52:00,30.0,20.0,-100.00,SSW,209,3.0,5.0,65,0.00,,,0.07,0.000000,,2013-03-13 05:52:00,